Year,Month,Day,Hour,Minute,Value (Times are PST for temperature in C)
2014,04,16,00,00,6.70
2014,04,16,00,01,6.70
2014,04,16,00,02,6.70
2014,04,16,00,03,6.70
2014,04,16,00,04,6.70
2014,04,16,00,05,6.70
2014,04,16,00,06,6.70
2014,04,16,00,07,6.70
2014,04,16,00,08,6.70
2014,04,16,00,09,6.70
2014,04,16,00,10,6.70
2014,04,16,00,11,6.70
2014,04,16,00,12,6.70
2014,04,16,00,13,6.70
2014,04,16,00,14,6.70
2014,04,16,00,15,6.70
2014,04,16,00,16,6.70
2014,04,16,00,17,6.70
2014,04,16,00,18,6.70
2014,04,16,00,19,6.70
2014,04,16,00,20,6.70
2014,04,16,00,21,6.70
2014,04,16,00,22,6.70
2014,04,16,00,23,6.70
2014,04,16,00,24,6.70
2014,04,16,00,25,6.60
2014,04,16,00,26,6.60
2014,04,16,00,27,6.60
2014,04,16,00,28,6.60
2014,04,16,00,29,6.60
2014,04,16,00,30,6.60
2014,04,16,00,31,6.60
2014,04,16,00,32,6.60
2014,04,16,00,33,6.60
2014,04,16,00,34,6.60
2014,04,16,00,35,6.60
2014,04,16,00,36,6.60
2014,04,16,00,37,6.60
2014,04,16,00,38,6.60
2014,04,16,00,39,6.60
2014,04,16,00,40,6.60
2014,04,16,00,41,6.60
2014,04,16,00,42,6.60
2014,04,16,00,43,6.60
2014,04,16,00,44,6.60
2014,04,16,00,45,6.60
2014,04,16,00,46,6.60
2014,04,16,00,47,6.60
2014,04,16,00,48,6.60
2014,04,16,00,49,6.60
2014,04,16,00,50,6.60
2014,04,16,00,51,6.60
2014,04,16,00,52,6.60
2014,04,16,00,53,6.60
2014,04,16,00,54,6.60
2014,04,16,00,55,6.60
2014,04,16,00,56,6.60
2014,04,16,00,57,6.60
2014,04,16,00,58,6.60
2014,04,16,00,59,6.50
2014,04,16,01,00,6.50
2014,04,16,01,01,6.50
2014,04,16,01,02,6.50
2014,04,16,01,03,6.50
2014,04,16,01,04,6.50
2014,04,16,01,05,6.50
2014,04,16,01,06,6.50
2014,04,16,01,07,6.50
2014,04,16,01,08,6.50
2014,04,16,01,09,6.50
2014,04,16,01,10,6.60
2014,04,16,01,11,6.60
2014,04,16,01,12,6.50
2014,04,16,01,13,6.60
2014,04,16,01,14,6.60
2014,04,16,01,15,6.60
2014,04,16,01,16,6.50
2014,04,16,01,17,6.50
2014,04,16,01,18,6.50
2014,04,16,01,19,6.50
2014,04,16,01,20,6.50
2014,04,16,01,21,6.40
2014,04,16,01,22,6.40
2014,04,16,01,23,6.40
2014,04,16,01,24,6.40
2014,04,16,01,25,6.40
2014,04,16,01,26,6.40
2014,04,16,01,27,6.40
2014,04,16,01,28,6.40
2014,04,16,01,29,6.40
2014,04,16,01,30,6.40
2014,04,16,01,31,6.40
2014,04,16,01,32,6.40
2014,04,16,01,33,6.40
2014,04,16,01,34,6.40
2014,04,16,01,35,6.40
2014,04,16,01,36,6.40
2014,04,16,01,37,6.40
2014,04,16,01,38,6.40
2014,04,16,01,39,6.40
2014,04,16,01,40,6.40
2014,04,16,01,41,6.40
2014,04,16,01,42,6.40
2014,04,16,01,43,6.40
2014,04,16,01,44,6.40
2014,04,16,01,45,6.40
2014,04,16,01,46,6.30
2014,04,16,01,47,6.30
2014,04,16,01,48,6.30
2014,04,16,01,49,6.30
2014,04,16,01,50,6.30
2014,04,16,01,51,6.30
2014,04,16,01,52,6.30
2014,04,16,01,53,6.30
2014,04,16,01,54,6.30
2014,04,16,01,55,6.30
2014,04,16,01,56,6.30
2014,04,16,01,57,6.30
2014,04,16,01,58,6.30
2014,04,16,01,59,6.30
2014,04,16,02,00,6.30
2014,04,16,02,01,6.30
2014,04,16,02,02,6.30
2014,04,16,02,03,6.30
2014,04,16,02,04,6.30
2014,04,16,02,05,6.30
2014,04,16,02,06,6.30
2014,04,16,02,07,6.30
2014,04,16,02,08,6.30
2014,04,16,02,09,6.30
2014,04,16,02,10,6.30
2014,04,16,02,11,6.30
2014,04,16,02,12,6.30
2014,04,16,02,13,6.30
2014,04,16,02,14,6.30
2014,04,16,02,15,6.30
2014,04,16,02,16,6.30
2014,04,16,02,17,6.30
2014,04,16,02,18,6.30
2014,04,16,02,19,6.30
2014,04,16,02,20,6.30
2014,04,16,02,21,6.30
2014,04,16,02,22,6.30
2014,04,16,02,23,6.20
2014,04,16,02,24,6.20
2014,04,16,02,25,6.20
2014,04,16,02,26,6.20
2014,04,16,02,27,6.20
2014,04,16,02,28,6.20
2014,04,16,02,29,6.20
2014,04,16,02,30,6.20
2014,04,16,02,31,6.20
2014,04,16,02,32,6.20
2014,04,16,02,33,6.20
2014,04,16,02,34,6.20
2014,04,16,02,35,6.20
2014,04,16,02,36,6.20
2014,04,16,02,37,6.20
2014,04,16,02,38,6.20
2014,04,16,02,39,6.20
2014,04,16,02,40,6.20
2014,04,16,02,41,6.20
2014,04,16,02,42,6.20
2014,04,16,02,43,6.20
2014,04,16,02,44,6.20
2014,04,16,02,45,6.20
2014,04,16,02,46,6.20
2014,04,16,02,47,6.20
2014,04,16,02,48,6.20
2014,04,16,02,49,6.20
2014,04,16,02,50,6.20
2014,04,16,02,51,6.20
2014,04,16,02,52,6.20
2014,04,16,02,53,6.20
2014,04,16,02,54,6.20
2014,04,16,02,55,6.20
2014,04,16,02,56,6.20
2014,04,16,02,57,6.20
2014,04,16,02,58,6.20
2014,04,16,02,59,6.20
2014,04,16,03,00,6.20
2014,04,16,03,01,6.20
2014,04,16,03,02,6.20
2014,04,16,03,03,6.20
2014,04,16,03,04,6.20
2014,04,16,03,05,6.20
2014,04,16,03,06,6.20
2014,04,16,03,07,6.20
2014,04,16,03,08,6.20
2014,04,16,03,09,6.20
2014,04,16,03,10,6.10
2014,04,16,03,11,6.10
2014,04,16,03,12,6.10
2014,04,16,03,13,6.10
2014,04,16,03,14,6.10
2014,04,16,03,15,6.10
2014,04,16,03,16,6.10
2014,04,16,03,17,6.10
2014,04,16,03,18,6.10
2014,04,16,03,19,6.10
2014,04,16,03,20,6.10
2014,04,16,03,21,6.00
2014,04,16,03,22,6.00
2014,04,16,03,23,6.10
2014,04,16,03,24,6.10
2014,04,16,03,25,6.10
2014,04,16,03,26,6.10
2014,04,16,03,27,6.10
2014,04,16,03,28,6.10
2014,04,16,03,29,6.10
2014,04,16,03,30,6.10
2014,04,16,03,31,6.10
2014,04,16,03,32,6.10
2014,04,16,03,33,6.10
2014,04,16,03,34,6.10
2014,04,16,03,35,6.00
2014,04,16,03,36,6.00
2014,04,16,03,37,6.00
2014,04,16,03,38,6.00
2014,04,16,03,39,6.00
2014,04,16,03,40,6.00
2014,04,16,03,41,6.00
2014,04,16,03,42,5.90
2014,04,16,03,43,5.90
2014,04,16,03,44,5.90
2014,04,16,03,45,5.90
2014,04,16,03,46,5.90
2014,04,16,03,47,5.90
2014,04,16,03,48,5.90
2014,04,16,03,49,5.90
2014,04,16,03,50,5.90
2014,04,16,03,51,5.90
2014,04,16,03,52,5.90
2014,04,16,03,53,5.90
2014,04,16,03,54,5.90
2014,04,16,03,55,5.90
2014,04,16,03,56,6.00
2014,04,16,03,57,5.90
2014,04,16,03,58,6.00
2014,04,16,03,59,6.00
2014,04,16,04,00,6.00
2014,04,16,04,01,6.00
2014,04,16,04,02,6.00
2014,04,16,04,03,6.00
2014,04,16,04,04,6.00
2014,04,16,04,05,6.00
2014,04,16,04,06,6.00
2014,04,16,04,07,6.00
2014,04,16,04,08,6.00
2014,04,16,04,09,6.00
2014,04,16,04,10,6.00
2014,04,16,04,11,6.00
2014,04,16,04,12,6.00
2014,04,16,04,13,6.00
2014,04,16,04,14,6.00
2014,04,16,04,15,6.00
2014,04,16,04,16,6.00
2014,04,16,04,17,6.00
2014,04,16,04,18,5.90
2014,04,16,04,19,5.90
2014,04,16,04,20,5.90
2014,04,16,04,21,5.90
2014,04,16,04,22,5.90
2014,04,16,04,23,5.90
2014,04,16,04,24,5.90
2014,04,16,04,25,5.90
2014,04,16,04,26,5.90
2014,04,16,04,27,5.90
2014,04,16,04,28,5.90
2014,04,16,04,29,5.90
2014,04,16,04,30,5.90
2014,04,16,04,31,5.90
2014,04,16,04,32,5.90
2014,04,16,04,33,5.90
2014,04,16,04,34,5.90
2014,04,16,04,35,5.90
2014,04,16,04,36,5.90
2014,04,16,04,37,5.90
2014,04,16,04,38,5.90
2014,04,16,04,39,5.90
2014,04,16,04,40,5.90
2014,04,16,04,41,5.90
2014,04,16,04,42,5.90
2014,04,16,04,43,6.00
2014,04,16,04,44,6.00
2014,04,16,04,45,5.90
2014,04,16,04,46,6.00
2014,04,16,04,47,6.00
2014,04,16,04,48,6.00
2014,04,16,04,49,6.00
2014,04,16,04,50,5.90
2014,04,16,04,51,5.90
2014,04,16,04,52,6.00
2014,04,16,04,53,6.00
2014,04,16,04,54,6.00
2014,04,16,04,55,6.00
2014,04,16,04,56,6.00
2014,04,16,04,57,6.00
2014,04,16,04,58,6.00
2014,04,16,04,59,5.90
2014,04,16,05,00,5.90
2014,04,16,05,01,5.90
2014,04,16,05,02,5.90
2014,04,16,05,03,5.90
2014,04,16,05,04,5.90
2014,04,16,05,05,5.90
2014,04,16,05,06,5.90
2014,04,16,05,07,5.90
2014,04,16,05,08,5.90
2014,04,16,05,09,5.90
2014,04,16,05,10,5.90
2014,04,16,05,11,5.90
2014,04,16,05,12,5.90
2014,04,16,05,13,5.90
2014,04,16,05,14,5.90
2014,04,16,05,15,5.90
2014,04,16,05,16,5.90
2014,04,16,05,17,5.90
2014,04,16,05,18,5.90
2014,04,16,05,19,5.90
2014,04,16,05,20,5.90
2014,04,16,05,21,5.90
2014,04,16,05,22,5.90
2014,04,16,05,23,5.90
2014,04,16,05,24,5.80
2014,04,16,05,25,5.80
2014,04,16,05,26,5.80
2014,04,16,05,27,5.80
2014,04,16,05,28,5.80
2014,04,16,05,29,5.80
2014,04,16,05,30,5.80
2014,04,16,05,31,5.80
2014,04,16,05,32,5.80
2014,04,16,05,33,5.80
2014,04,16,05,34,5.80
2014,04,16,05,35,5.80
2014,04,16,05,36,5.80
2014,04,16,05,37,5.80
2014,04,16,05,38,5.80
2014,04,16,05,39,5.80
2014,04,16,05,40,5.80
2014,04,16,05,41,5.80
2014,04,16,05,42,5.80
2014,04,16,05,43,5.80
2014,04,16,05,44,5.80
2014,04,16,05,45,5.80
2014,04,16,05,46,5.80
2014,04,16,05,47,5.80
2014,04,16,05,48,5.80
2014,04,16,05,49,5.80
2014,04,16,05,50,5.80
2014,04,16,05,51,5.80
2014,04,16,05,52,5.80
2014,04,16,05,53,5.80
2014,04,16,05,54,5.80
2014,04,16,05,55,5.80
2014,04,16,05,56,5.80
2014,04,16,05,57,5.80
2014,04,16,05,58,5.80
2014,04,16,05,59,5.80
2014,04,16,06,00,5.80
2014,04,16,06,01,5.80
2014,04,16,06,02,5.80
2014,04,16,06,03,5.80
2014,04,16,06,04,5.80
2014,04,16,06,05,5.90
2014,04,16,06,06,5.90
2014,04,16,06,07,5.90
2014,04,16,06,08,5.90
2014,04,16,06,09,5.90
2014,04,16,06,10,5.90
2014,04,16,06,11,5.90
2014,04,16,06,12,5.90
2014,04,16,06,13,5.90
2014,04,16,06,14,5.90
2014,04,16,06,15,5.80
2014,04,16,06,16,5.80
2014,04,16,06,17,5.80
2014,04,16,06,18,5.80
2014,04,16,06,19,5.80
2014,04,16,06,20,5.80
2014,04,16,06,21,5.80
2014,04,16,06,22,5.80
2014,04,16,06,23,5.80
2014,04,16,06,24,5.80
2014,04,16,06,25,5.80
2014,04,16,06,26,5.80
2014,04,16,06,27,5.80
2014,04,16,06,28,5.80
2014,04,16,06,29,5.80
2014,04,16,06,30,5.80
2014,04,16,06,31,5.80
2014,04,16,06,32,5.80
2014,04,16,06,33,5.80
2014,04,16,06,34,5.80
2014,04,16,06,35,5.80
2014,04,16,06,36,5.80
2014,04,16,06,37,5.80
2014,04,16,06,38,5.80
2014,04,16,06,39,5.80
2014,04,16,06,40,5.80
2014,04,16,06,41,5.80
2014,04,16,06,42,5.90
2014,04,16,06,43,5.90
2014,04,16,06,44,5.90
2014,04,16,06,45,5.90
2014,04,16,06,46,5.90
2014,04,16,06,47,5.90
2014,04,16,06,48,5.90
2014,04,16,06,49,5.80
2014,04,16,06,50,5.90
2014,04,16,06,51,5.80
2014,04,16,06,52,5.80
2014,04,16,06,53,5.90
2014,04,16,06,54,5.90
2014,04,16,06,55,5.90
2014,04,16,06,56,5.90
2014,04,16,06,57,5.80
2014,04,16,06,58,5.80
2014,04,16,06,59,5.80
2014,04,16,07,00,5.80
2014,04,16,07,01,5.80
2014,04,16,07,02,5.80
2014,04,16,07,03,5.80
2014,04,16,07,04,5.80
2014,04,16,07,05,5.80
2014,04,16,07,06,5.80
2014,04,16,07,07,5.80
2014,04,16,07,08,5.80
2014,04,16,07,09,5.80
2014,04,16,07,10,5.80
2014,04,16,07,11,5.80
2014,04,16,07,12,5.80
2014,04,16,07,13,5.90
2014,04,16,07,14,5.90
2014,04,16,07,15,5.90
2014,04,16,07,16,5.90
2014,04,16,07,17,5.90
2014,04,16,07,18,5.90
2014,04,16,07,19,5.90
2014,04,16,07,20,5.90
2014,04,16,07,21,5.90
2014,04,16,07,22,5.90
2014,04,16,07,23,5.80
2014,04,16,07,24,5.80
2014,04,16,07,25,5.80
2014,04,16,07,26,5.80
2014,04,16,07,27,5.80
2014,04,16,07,28,5.80
2014,04,16,07,29,5.80
2014,04,16,07,30,5.80
2014,04,16,07,31,5.80
2014,04,16,07,32,5.80
2014,04,16,07,33,5.80
2014,04,16,07,34,5.80
2014,04,16,07,35,5.80
2014,04,16,07,36,5.80
2014,04,16,07,37,5.80
2014,04,16,07,38,5.80
2014,04,16,07,39,5.80
2014,04,16,07,40,5.80
2014,04,16,07,41,5.80
2014,04,16,07,42,5.80
2014,04,16,07,43,5.80
2014,04,16,07,44,5.80
2014,04,16,07,45,5.80
2014,04,16,07,46,5.80
2014,04,16,07,47,5.90
2014,04,16,07,48,5.90
2014,04,16,07,49,5.90
2014,04,16,07,50,5.90
2014,04,16,07,51,5.90
2014,04,16,07,52,5.90
2014,04,16,07,53,5.90
2014,04,16,07,54,5.90
2014,04,16,07,55,5.90
2014,04,16,07,56,5.90
2014,04,16,07,57,5.90
2014,04,16,07,58,6.00
2014,04,16,07,59,6.00
2014,04,16,08,00,6.00
2014,04,16,08,01,6.00
2014,04,16,08,02,6.00
2014,04,16,08,03,6.10
2014,04,16,08,04,6.10
2014,04,16,08,05,6.10
2014,04,16,08,06,6.10
2014,04,16,08,07,6.10
2014,04,16,08,08,6.10
2014,04,16,08,09,6.10
2014,04,16,08,10,6.10
2014,04,16,08,11,6.10
2014,04,16,08,12,6.10
2014,04,16,08,13,6.10
2014,04,16,08,14,6.10
2014,04,16,08,15,6.10
2014,04,16,08,16,6.10
2014,04,16,08,17,6.10
2014,04,16,08,18,6.10
2014,04,16,08,19,6.10
2014,04,16,08,20,6.10
2014,04,16,08,21,6.10
2014,04,16,08,22,6.10
2014,04,16,08,23,6.10
2014,04,16,08,24,6.10
2014,04,16,08,25,6.10
2014,04,16,08,26,6.10
2014,04,16,08,27,6.10
2014,04,16,08,28,6.10
2014,04,16,08,29,6.10
2014,04,16,08,30,6.10
2014,04,16,08,31,6.10
2014,04,16,08,32,6.10
2014,04,16,08,33,6.10
2014,04,16,08,34,6.10
2014,04,16,08,35,6.10
2014,04,16,08,36,6.10
2014,04,16,08,37,6.10
2014,04,16,08,38,6.10
2014,04,16,08,39,6.10
2014,04,16,08,40,6.20
2014,04,16,08,41,6.20
2014,04,16,08,42,6.20
2014,04,16,08,43,6.20
2014,04,16,08,44,6.20
2014,04,16,08,45,6.20
2014,04,16,08,46,6.20
2014,04,16,08,47,6.20
2014,04,16,08,48,6.20
2014,04,16,08,49,6.20
2014,04,16,08,50,6.30
2014,04,16,08,51,6.30
2014,04,16,08,52,6.30
2014,04,16,08,53,6.30
2014,04,16,08,54,6.30
2014,04,16,08,55,6.30
2014,04,16,08,56,6.30
2014,04,16,08,57,6.40
2014,04,16,08,58,6.40
2014,04,16,08,59,6.40
2014,04,16,09,00,6.40
2014,04,16,09,01,6.40
2014,04,16,09,02,6.40
2014,04,16,09,03,6.40
2014,04,16,09,04,6.50
2014,04,16,09,05,6.50
2014,04,16,09,06,6.50
2014,04,16,09,07,6.50
2014,04,16,09,08,6.50
2014,04,16,09,09,6.50
2014,04,16,09,10,6.50
2014,04,16,09,11,6.50
2014,04,16,09,12,6.50
2014,04,16,09,13,6.50
2014,04,16,09,14,6.50
2014,04,16,09,15,6.50
2014,04,16,09,16,6.50
2014,04,16,09,17,6.60
2014,04,16,09,18,6.60
2014,04,16,09,19,6.60
2014,04,16,09,20,6.60
2014,04,16,09,21,6.60
2014,04,16,09,22,6.60
2014,04,16,09,23,6.60
2014,04,16,09,24,6.60
2014,04,16,09,25,6.60
2014,04,16,09,26,6.50
2014,04,16,09,27,6.50
2014,04,16,09,28,6.60
2014,04,16,09,29,6.60
2014,04,16,09,30,6.60
2014,04,16,09,31,6.60
2014,04,16,09,32,6.60
2014,04,16,09,33,6.60
2014,04,16,09,34,6.60
2014,04,16,09,35,6.60
2014,04,16,09,36,6.60
2014,04,16,09,37,6.60
2014,04,16,09,38,6.60
2014,04,16,09,39,6.60
2014,04,16,09,40,6.60
2014,04,16,09,41,6.60
2014,04,16,09,42,6.60
2014,04,16,09,43,6.60
2014,04,16,09,44,6.60
2014,04,16,09,45,6.60
2014,04,16,09,46,6.70
2014,04,16,09,47,6.70
2014,04,16,09,48,6.70
2014,04,16,09,49,6.70
2014,04,16,09,50,6.70
2014,04,16,09,51,6.70
2014,04,16,09,52,6.70
2014,04,16,09,53,6.80
2014,04,16,09,54,6.80
2014,04,16,09,55,6.80
2014,04,16,09,56,6.80
2014,04,16,09,57,6.80
2014,04,16,09,58,6.80
2014,04,16,09,59,6.80
2014,04,16,10,00,6.80
2014,04,16,10,01,6.80
2014,04,16,10,02,6.80
2014,04,16,10,03,6.90
2014,04,16,10,04,6.90
2014,04,16,10,05,6.90
2014,04,16,10,06,6.90
2014,04,16,10,07,6.90
2014,04,16,10,08,7.00
2014,04,16,10,09,7.00
2014,04,16,10,10,7.00
2014,04,16,10,11,7.10
2014,04,16,10,12,7.10
2014,04,16,10,13,7.10
2014,04,16,10,14,7.10
2014,04,16,10,15,7.10
2014,04,16,10,16,7.10
2014,04,16,10,17,7.10
2014,04,16,10,18,7.10
2014,04,16,10,19,7.20
2014,04,16,10,20,7.20
2014,04,16,10,21,7.20
2014,04,16,10,22,7.20
2014,04,16,10,23,7.30
2014,04,16,10,24,7.30
2014,04,16,10,25,7.30
2014,04,16,10,26,7.30
2014,04,16,10,27,7.30
2014,04,16,10,28,7.30
2014,04,16,10,29,7.30
2014,04,16,10,30,7.30
2014,04,16,10,31,7.30
2014,04,16,10,32,7.30
2014,04,16,10,33,7.30
2014,04,16,10,34,7.30
2014,04,16,10,35,7.30
2014,04,16,10,36,7.30
2014,04,16,10,37,7.40
2014,04,16,10,38,7.40
2014,04,16,10,39,7.40
2014,04,16,10,40,7.50
2014,04,16,10,41,7.50
2014,04,16,10,42,7.60
2014,04,16,10,43,7.60
2014,04,16,10,44,7.60
2014,04,16,10,45,7.60
2014,04,16,10,46,7.60
2014,04,16,10,47,7.70
2014,04,16,10,48,7.70
2014,04,16,10,49,7.70
2014,04,16,10,50,7.80
2014,04,16,10,51,7.80
2014,04,16,10,52,7.80
2014,04,16,10,53,7.80
2014,04,16,10,54,7.80
2014,04,16,10,55,7.80
2014,04,16,10,56,7.90
2014,04,16,10,57,7.90
2014,04,16,10,58,7.90
2014,04,16,10,59,7.90
2014,04,16,11,00,7.90
2014,04,16,11,01,7.90
2014,04,16,11,02,7.90
2014,04,16,11,03,7.90
2014,04,16,11,04,7.90
2014,04,16,11,05,7.90
2014,04,16,11,06,7.90
2014,04,16,11,07,7.80
2014,04,16,11,08,7.90
2014,04,16,11,09,7.90
2014,04,16,11,10,7.90
2014,04,16,11,11,7.90
2014,04,16,11,12,7.90
2014,04,16,11,13,7.90
2014,04,16,11,14,7.90
2014,04,16,11,15,8.00
2014,04,16,11,16,8.00
2014,04,16,11,17,8.00
2014,04,16,11,18,8.10
2014,04,16,11,19,8.10
2014,04,16,11,20,8.10
2014,04,16,11,21,8.10
2014,04,16,11,22,8.10
2014,04,16,11,23,8.20
2014,04,16,11,24,8.20
2014,04,16,11,25,8.20
2014,04,16,11,26,8.20
2014,04,16,11,27,8.20
2014,04,16,11,28,8.20
2014,04,16,11,29,8.20
2014,04,16,11,30,8.30
2014,04,16,11,31,8.30
2014,04,16,11,32,8.30
2014,04,16,11,33,8.30
2014,04,16,11,34,8.30
2014,04,16,11,35,8.30
2014,04,16,11,36,8.30
2014,04,16,11,37,8.30
2014,04,16,11,38,8.40
2014,04,16,11,39,8.40
2014,04,16,11,40,8.40
2014,04,16,11,41,8.40
2014,04,16,11,42,8.50
2014,04,16,11,43,8.50
2014,04,16,11,44,8.50
2014,04,16,11,45,8.60
2014,04,16,11,46,8.60
2014,04,16,11,47,8.60
2014,04,16,11,48,8.60
2014,04,16,11,49,8.70
2014,04,16,11,50,8.70
2014,04,16,11,51,8.80
2014,04,16,11,52,8.80
2014,04,16,11,53,8.80
2014,04,16,11,54,8.90
2014,04,16,11,55,8.90
2014,04,16,11,56,9.00
2014,04,16,11,57,9.00
2014,04,16,11,58,9.00
2014,04,16,11,59,9.10
2014,04,16,12,00,9.10
2014,04,16,12,01,9.10
2014,04,16,12,02,9.10
2014,04,16,12,03,9.10
2014,04,16,12,04,9.20
2014,04,16,12,05,9.20
2014,04,16,12,06,9.20
2014,04,16,12,07,9.30
2014,04,16,12,08,9.30
2014,04,16,12,09,9.40
2014,04,16,12,10,9.40
2014,04,16,12,11,9.40
2014,04,16,12,12,9.40
2014,04,16,12,13,9.50
2014,04,16,12,14,9.50
2014,04,16,12,15,9.50
2014,04,16,12,16,9.50
2014,04,16,12,17,9.40
2014,04,16,12,18,9.40
2014,04,16,12,19,9.40
2014,04,16,12,20,9.40
2014,04,16,12,21,9.40
2014,04,16,12,22,9.30
2014,04,16,12,23,9.30
2014,04,16,12,24,9.30
2014,04,16,12,25,9.30
2014,04,16,12,26,9.40
2014,04,16,12,27,9.40
2014,04,16,12,28,9.30
2014,04,16,12,29,9.40
2014,04,16,12,30,9.40
2014,04,16,12,31,9.40
2014,04,16,12,32,9.40
2014,04,16,12,33,9.40
2014,04,16,12,34,9.40
2014,04,16,12,35,9.40
2014,04,16,12,36,9.50
2014,04,16,12,37,9.50
2014,04,16,12,38,9.50
2014,04,16,12,39,9.60
2014,04,16,12,40,9.60
2014,04,16,12,41,9.60
2014,04,16,12,42,9.60
2014,04,16,12,43,9.60
2014,04,16,12,44,9.60
2014,04,16,12,45,9.60
2014,04,16,12,46,9.60
2014,04,16,12,47,9.70
2014,04,16,12,48,9.70
2014,04,16,12,49,9.70
2014,04,16,12,50,9.70
2014,04,16,12,51,9.70
2014,04,16,12,52,9.70
2014,04,16,12,53,9.70
2014,04,16,12,54,9.70
2014,04,16,12,55,9.60
2014,04,16,12,56,9.60
2014,04,16,12,57,9.50
2014,04,16,12,58,9.50
2014,04,16,12,59,9.50
2014,04,16,13,00,9.40
2014,04,16,13,01,9.40
2014,04,16,13,02,9.40
2014,04,16,13,03,9.50
2014,04,16,13,04,9.50
2014,04,16,13,05,9.50
2014,04,16,13,06,9.50
2014,04,16,13,07,9.50
2014,04,16,13,08,9.60
2014,04,16,13,09,9.60
2014,04,16,13,10,9.60
2014,04,16,13,11,9.60
2014,04,16,13,12,9.60
2014,04,16,13,13,9.60
2014,04,16,13,14,9.60
2014,04,16,13,15,9.60
2014,04,16,13,16,9.60
2014,04,16,13,17,9.60
2014,04,16,13,18,9.60
2014,04,16,13,19,9.60
2014,04,16,13,20,9.60
2014,04,16,13,21,9.60
2014,04,16,13,22,9.70
2014,04,16,13,23,9.70
2014,04,16,13,24,9.70
2014,04,16,13,25,9.80
2014,04,16,13,26,9.80
2014,04,16,13,27,9.80
2014,04,16,13,28,9.80
2014,04,16,13,29,9.80
2014,04,16,13,30,9.80
2014,04,16,13,31,9.80
2014,04,16,13,32,9.80
2014,04,16,13,33,9.80
2014,04,16,13,34,9.80
2014,04,16,13,35,9.80
2014,04,16,13,36,9.80
2014,04,16,13,37,9.80
2014,04,16,13,38,9.80
2014,04,16,13,39,9.80
2014,04,16,13,40,9.90
2014,04,16,13,41,9.90
2014,04,16,13,42,10.00
2014,04,16,13,43,10.00
2014,04,16,13,44,10.10
2014,04,16,13,45,10.10
2014,04,16,13,46,10.10
2014,04,16,13,47,10.00
2014,04,16,13,48,10.00
2014,04,16,13,49,9.90
2014,04,16,13,50,9.90
2014,04,16,13,51,9.90
2014,04,16,13,52,9.80
2014,04,16,13,53,9.80
2014,04,16,13,54,9.70
2014,04,16,13,55,9.70
2014,04,16,13,56,9.70
2014,04,16,13,57,9.60
2014,04,16,13,58,9.60
2014,04,16,13,59,9.60
2014,04,16,14,00,9.60
2014,04,16,14,01,9.60
2014,04,16,14,02,9.60
2014,04,16,14,03,9.50
2014,04,16,14,04,9.60
2014,04,16,14,05,9.60
2014,04,16,14,06,9.60
2014,04,16,14,07,9.60
2014,04,16,14,08,9.60
2014,04,16,14,09,9.60
2014,04,16,14,10,9.60
2014,04,16,14,11,9.60
2014,04,16,14,12,9.60
2014,04,16,14,13,9.60
2014,04,16,14,14,9.70
2014,04,16,14,15,9.70
2014,04,16,14,16,9.70
2014,04,16,14,17,9.70
2014,04,16,14,18,9.80
2014,04,16,14,19,9.70
2014,04,16,14,20,9.80
2014,04,16,14,21,9.80
2014,04,16,14,22,9.80
2014,04,16,14,23,9.80
2014,04,16,14,24,9.80
2014,04,16,14,25,9.90
2014,04,16,14,26,9.90
2014,04,16,14,27,10.00
2014,04,16,14,28,10.10
2014,04,16,14,29,10.20
2014,04,16,14,30,10.30
2014,04,16,14,31,10.40
2014,04,16,14,32,10.40
2014,04,16,14,33,10.50
2014,04,16,14,34,10.50
2014,04,16,14,35,10.60
2014,04,16,14,36,10.70
2014,04,16,14,37,10.70
2014,04,16,14,38,10.80
2014,04,16,14,39,10.80
2014,04,16,14,40,10.90
2014,04,16,14,41,10.90
2014,04,16,14,42,11.00
2014,04,16,14,43,11.00
2014,04,16,14,44,11.10
2014,04,16,14,45,11.10
2014,04,16,14,46,11.10
2014,04,16,14,47,11.20
2014,04,16,14,48,11.20
2014,04,16,14,49,11.20
2014,04,16,14,50,11.20
2014,04,16,14,51,11.20
2014,04,16,14,52,11.20
2014,04,16,14,53,11.20
2014,04,16,14,54,11.20
2014,04,16,14,55,11.20
2014,04,16,14,56,11.20
2014,04,16,14,57,11.20
2014,04,16,14,58,11.20
2014,04,16,14,59,11.20
2014,04,16,15,00,11.30
2014,04,16,15,01,11.30
2014,04,16,15,02,11.30
2014,04,16,15,03,11.30
2014,04,16,15,04,11.40
2014,04,16,15,05,11.40
2014,04,16,15,06,11.40
2014,04,16,15,07,11.50
2014,04,16,15,08,11.50
2014,04,16,15,09,11.50
2014,04,16,15,10,11.60
2014,04,16,15,11,11.60
2014,04,16,15,12,11.60
2014,04,16,15,13,11.60
2014,04,16,15,14,11.60
2014,04,16,15,15,11.60
2014,04,16,15,16,11.60
2014,04,16,15,17,11.60
2014,04,16,15,18,11.60
2014,04,16,15,19,11.60
2014,04,16,15,20,11.60
2014,04,16,15,21,11.50
2014,04,16,15,22,11.40
2014,04,16,15,23,11.40
2014,04,16,15,24,11.40
2014,04,16,15,25,11.40
2014,04,16,15,26,11.40
2014,04,16,15,27,11.40
2014,04,16,15,28,11.40
2014,04,16,15,29,11.40
2014,04,16,15,30,11.40
2014,04,16,15,31,11.40
2014,04,16,15,32,11.40
2014,04,16,15,33,11.40
2014,04,16,15,34,11.40
2014,04,16,15,35,11.40
2014,04,16,15,36,11.40
2014,04,16,15,37,11.50
2014,04,16,15,38,11.50
2014,04,16,15,39,11.60
2014,04,16,15,40,11.60
2014,04,16,15,41,11.60
2014,04,16,15,42,11.70
2014,04,16,15,43,11.70
2014,04,16,15,44,11.70
2014,04,16,15,45,11.70
2014,04,16,15,46,11.80
2014,04,16,15,47,11.80
2014,04,16,15,48,11.80
2014,04,16,15,49,11.80
2014,04,16,15,50,11.90
2014,04,16,15,51,11.90
2014,04,16,15,52,11.90
2014,04,16,15,53,11.90
2014,04,16,15,54,11.90
2014,04,16,15,55,11.90
2014,04,16,15,56,11.90
2014,04,16,15,57,11.90
2014,04,16,15,58,11.90
2014,04,16,15,59,11.90
2014,04,16,16,00,11.90
2014,04,16,16,01,11.80
2014,04,16,16,02,11.80
2014,04,16,16,03,11.80
2014,04,16,16,04,11.80
2014,04,16,16,05,11.80
2014,04,16,16,06,11.80
2014,04,16,16,07,11.80
2014,04,16,16,08,11.80
2014,04,16,16,09,11.80
2014,04,16,16,10,11.80
2014,04,16,16,11,11.80
2014,04,16,16,12,11.80
2014,04,16,16,13,11.80
2014,04,16,16,14,11.80
2014,04,16,16,15,11.70
2014,04,16,16,16,11.70
2014,04,16,16,17,11.70
2014,04,16,16,18,11.70
2014,04,16,16,19,11.70
2014,04,16,16,20,11.70
2014,04,16,16,21,11.70
2014,04,16,16,22,11.80
2014,04,16,16,23,11.80
2014,04,16,16,24,11.80
2014,04,16,16,25,11.80
2014,04,16,16,26,11.80
2014,04,16,16,27,11.80
2014,04,16,16,28,11.80
2014,04,16,16,29,11.70
2014,04,16,16,30,11.70
2014,04,16,16,31,11.70
2014,04,16,16,32,11.80
2014,04,16,16,33,11.80
2014,04,16,16,34,11.80
2014,04,16,16,35,11.80
2014,04,16,16,36,11.80
2014,04,16,16,37,11.80
2014,04,16,16,38,11.80
2014,04,16,16,39,11.80
2014,04,16,16,40,11.80
2014,04,16,16,41,11.80
2014,04,16,16,42,11.80
2014,04,16,16,43,11.80
2014,04,16,16,44,11.80
2014,04,16,16,45,11.80
2014,04,16,16,46,11.70
2014,04,16,16,47,11.70
2014,04,16,16,48,11.70
2014,04,16,16,49,11.70
2014,04,16,16,50,11.60
2014,04,16,16,51,11.60
2014,04,16,16,52,11.50
2014,04,16,16,53,11.50
2014,04,16,16,54,11.40
2014,04,16,16,55,11.40
2014,04,16,16,56,11.40
2014,04,16,16,57,11.40
2014,04,16,16,58,11.30
2014,04,16,16,59,11.30
2014,04,16,17,00,11.30
2014,04,16,17,01,11.20
2014,04,16,17,02,11.20
2014,04,16,17,03,11.20
2014,04,16,17,04,11.10
2014,04,16,17,05,11.10
2014,04,16,17,06,11.10
2014,04,16,17,07,11.10
2014,04,16,17,08,11.10
2014,04,16,17,09,11.10
2014,04,16,17,10,11.10
2014,04,16,17,11,11.10
2014,04,16,17,12,11.10
2014,04,16,17,13,11.10
2014,04,16,17,14,11.10
2014,04,16,17,15,11.10
2014,04,16,17,16,11.20
2014,04,16,17,17,11.20
2014,04,16,17,18,11.20
2014,04,16,17,19,11.20
2014,04,16,17,20,11.20
2014,04,16,17,21,11.30
2014,04,16,17,22,11.30
2014,04,16,17,23,11.30
2014,04,16,17,24,11.30
2014,04,16,17,25,11.40
2014,04,16,17,26,11.40
2014,04,16,17,27,11.40
2014,04,16,17,28,11.40
2014,04,16,17,29,11.40
2014,04,16,17,30,11.40
2014,04,16,17,31,11.40
2014,04,16,17,32,11.50
2014,04,16,17,33,11.50
2014,04,16,17,34,11.50
2014,04,16,17,35,11.50
2014,04,16,17,36,11.50
2014,04,16,17,37,11.50
2014,04,16,17,38,11.60
2014,04,16,17,39,11.60
2014,04,16,17,40,11.50
2014,04,16,17,41,11.50
2014,04,16,17,42,11.50
2014,04,16,17,43,11.50
2014,04,16,17,44,11.50
2014,04,16,17,45,11.40
2014,04,16,17,46,11.40
2014,04,16,17,47,11.40
2014,04,16,17,48,11.40
2014,04,16,17,49,11.40
2014,04,16,17,50,11.40
2014,04,16,17,51,11.40
2014,04,16,17,52,11.40
2014,04,16,17,53,11.40
2014,04,16,17,54,11.40
2014,04,16,17,55,11.40
2014,04,16,17,56,11.40